Temp_Advection
nan nan nan nan nan nan nan nan nan nan nan nan nan nan nan nan nan nan nan nan nan nan nan nan nan nan nan nan nan nan nan nan nan nan nan nan nan nan nan nan nan nan nan
nan 1 0 0 0 0 0 0 0 0 0 0 0 0 0 0 0 0 0 0 0 0 0 0 -0 -0 -0 -0 -0 -0 -0 -0 -0 -0 -0 -0 -0 -0 -0 -0 -0 0 nan
nan 1 1 0 0 0 0 0 0 0 0 0 0 0 0 0 0 0 -0 0 -0 0 0 0 0 0 -0 -0 -0 -0 -0 -0 -0 -0 -0 -0 -0 -0 -0 -0 -0 -0 nan
nan 0 1 0 -0 0 0 0 0 0 0 0 0 0 0 0 -0 -0 0 0 0 0 0 0 0 0 0 0 -0 0 0 -0 -0 -0 -0 -0 0 -0 -0 -0 -0 -0 nan
nan 0 0 0 0 0 0 0 0 0 0 0 0 0 -0 -0 0 0 0 0 0 0 0 0 0 0 0 0 0 0 0 0 0 -0 -0 0 0 -0 0 -0 -0 -0 nan
nan 0 -0 0 0 0 0 0 0 0 0 -0 -0 0 -0 -0 -0 -0 -0 -0 0 0 0 -0 0 0 -0 0 0 0 0 0 0 -0 0 -0 -0 -0 -0 -0 -0 -0 nan
nan 0 0 0 0 -0 0 0 0 0 0 -0 0 0 -0 -0 -0 -0 0 0 0 0 0 0 0 0 0 0 -0 -0 -0 0 -0 0 0 -0 0 -0 -0 -0 -0 -0 nan
nan 0 -0 0 0 0 0 1 0 0 0 0 0 -0 -0 -0 -0 0 0 0 0 0 0 0 0 0 -0 -0 -0 -0 -0 -0 -0 0 0 0 -0 -0 -0 -0 -0 -0 nan
nan 0 -0 0 0 0 1 0 0 0 0 0 -0 -0 -0 0 0 0 0 0 0 0 0 0 0 0 0 0 0 -0 -0 -0 -0 0 0 0 -0 -0 -0 -0 -0 -0 nan
nan -0 0 0 0 0 0 0 0 0 0 -0 -0 -0 0 0 0 0 0 0 0 0 0 0 0 0 0 0 0 -0 -0 -0 -0 0 -0 -0 -0 -0 -0 -0 -0 -0 nan
nan -0 -0 0 0 0 0 0 0 0 -0 -0 -0 0 0 0 0 0 0 0 0 0 0 0 0 0 0 0 0 0 -0 -0 -0 -0 0 0 -0 -0 -0 -0 -0 -0 nan
nan -0 0 0 0 0 0 0 -0 -0 -0 -0 0 0 0 0 0 0 0 0 0 0 0 0 0 0 0 0 0 0 -0 -0 -0 0 0 0 0 0 0 -0 -0 -0 nan
nan 0 0 0 0 -0 0 0 -0 -0 -0 -0 0 0 0 0 0 0 0 0 0 0 0 0 0 0 0 -0 0 0 0 -0 -0 0 0 0 0 0 0 0 -0 -0 nan
nan -0 0 0 -0 -0 0 0 -0 -0 -0 0 0 0 0 0 0 0 0 0 0 -0 0 0 0 0 0 0 0 -0 0 0 -0 -0 0 0 0 0 0 -0 -0 0 nan
nan -0 1 -0 0 0 1 0 -0 -0 0 0 0 0 0 0 0 0 0 0 0 0 0 0 0 0 0 0 -0 -0 0 0 0 0 0 0 0 0 -0 -0 -0 0 nan
nan 1 -1 -0 -0 0 1 0 -0 0 0 0 0 0 0 0 0 0 0 0 0 0 0 0 0 0 0 0 0 0 0 0 0 0 0 0 0 0 0 -0 -0 -0 nan
nan -0 -1 1 0 1 1 -0 0 0 0 0 0 0 0 0 0 0 0 0 0 0 0 0 0 0 0 0 0 0 0 0 0 0 0 0 0 0 -0 -0 -0 -0 nan
nan 0 -0 0 1 0 0 0 1 0 0 0 0 0 0 0 0 0 0 0 0 0 0 0 0 0 0 0 -0 0 0 0 0 0 0 0 0 0 -0 -0 -0 -0 nan
nan 1 0 -0 1 1 1 1 0 0 0 0 0 0 0 0 0 0 0 0 0 0 0 0 0 -0 0 0 0 0 0 0 0 0 0 0 -0 0 -0 -0 -0 -0 nan
nan 0 0 1 1 3 2 1 -0 0 0 0 0 0 0 0 0 0 0 0 0 0 0 0 0 0 0 0 0 0 0 0 0 0 0 -0 -0 -0 -0 -0 -0 -0 nan
nan -0 -0 1 0 1 2 -0 0 0 0 0 0 0 0 0 0 0 0 0 0 0 0 0 0 0 0 -0 -0 -0 -0 0 0 0 0 0 0 0 -0 -0 -0 -0 nan
nan -0 0 -0 -0 1 1 0 1 0 0 0 0 0 0 0 0 0 0 0 0 0 0 0 0 0 0 -0 0 -0 -0 -0 -0 -0 0 0 0 -0 -0 -0 -0 -0 nan
nan 0 -0 -0 2 0 0 0 0 -0 -0 0 0 0 0 0 0 0 0 0 0 0 0 0 0 0 0 0 -0 0 0 -0 -0 -0 -0 -0 0 0 -0 -0 0 -0 nan
nan 0 1 1 0 -2 0 0 -0 -0 0 0 0 0 0 0 0 0 0 0 0 0 0 0 0 0 0 -0 0 0 -0 -0 0 0 -0 -0 -0 0 0 0 -0 -0 nan
nan 1 1 0 -0 2 1 -0 1 1 0 0 0 0 0 0 0 0 0 0 0 0 0 0 0 0 0 -0 0 0 -0 -0 -0 -0 -0 -0 -1 -0 -0 0 -0 -0 nan
nan nan nan nan nan nan nan nan nan nan nan nan nan nan nan nan nan nan nan nan nan nan nan nan nan nan nan nan nan nan nan nan nan nan nan nan nan nan nan nan nan nan nan
Wind_Speed
19 26 25 23 21 20 18 17 15 14 12 11 10 9 8 7 6 5 5 5 6 4 3 2 1 1 2 2 3 3 3 3 3 3 3 4 4 5 6 6 8 5 7
20 26 25 22 21 20 19 17 15 14 12 11 10 9 8 7 5 4 5 5 2 1 1 0 2 3 2 2 2 2 2 1 1 2 3 5 4 4 6 7 7 5 6
22 26 26 23 21 20 19 17 16 14 12 11 10 8 7 6 6 5 5 5 4 3 2 3 2 1 1 1 2 2 2 2 2 1 2 4 2 3 5 6 7 7 7
23 25 25 26 22 21 19 17 16 13 11 11 11 10 8 6 6 7 5 4 5 6 6 5 5 6 5 5 5 5 4 3 2 1 2 2 3 4 5 6 6 6 7
21 23 23 27 22 21 19 18 15 15 15 13 12 10 8 7 7 7 7 7 7 8 8 8 9 9 9 9 8 7 6 4 3 1 2 1 3 3 4 5 6 8 7
21 22 23 26 23 20 18 17 18 16 15 13 10 9 8 7 7 8 7 7 8 9 9 9 9 9 9 8 7 6 5 5 2 1 2 2 1 3 5 6 8 10 10
21 21 23 24 23 20 18 20 19 16 14 12 10 9 8 8 8 8 7 7 7 7 7 7 7 6 5 4 3 2 2 1 2 3 3 3 0 5 3 7 9 11 10
19 21 22 24 22 21 22 20 18 16 14 12 10 9 8 7 7 7 6 6 6 6 6 5 5 4 2 2 1 1 2 3 5 4 4 2 2 5 8 10 10 10 8
20 21 22 24 24 24 24 21 17 16 13 11 10 9 8 7 7 6 6 6 6 6 5 4 3 2 1 1 1 2 3 4 6 4 4 1 3 7 9 8 5 6 8
22 24 22 23 26 28 24 21 18 15 13 11 10 8 7 7 7 7 7 7 5 5 4 4 3 2 2 2 2 3 4 4 4 4 3 2 3 5 4 6 7 6 7
27 29 26 29 31 28 24 22 18 16 13 11 10 9 8 7 7 7 7 5 5 5 4 4 3 3 2 2 2 2 3 2 2 3 3 3 2 5 8 8 6 6 5
29 33 32 31 30 29 25 21 19 17 14 13 11 9 9 8 7 6 5 5 5 4 4 4 4 3 3 2 1 1 1 1 2 4 5 11 9 8 5 3 3 2 4
28 36 37 35 33 30 26 23 21 17 15 13 12 10 9 8 7 6 5 5 5 5 4 4 3 3 3 3 2 1 2 2 2 4 9 10 9 5 4 2 4 6 7
33 36 42 39 38 29 28 24 21 18 16 14 12 11 10 9 8 7 6 6 6 5 5 5 4 3 3 3 2 1 2 2 2 5 8 12 8 6 5 4 6 8 6
28 31 50 42 39 30 29 25 22 19 16 14 13 12 10 9 9 8 7 7 6 5 5 4 4 3 3 2 2 2 2 2 2 4 6 11 13 12 10 9 9 7 6
27 28 32 43 37 32 29 27 23 20 17 15 14 13 11 10 9 8 7 7 6 6 5 5 5 4 3 3 2 2 2 1 2 3 4 5 7 8 8 8 8 7 8
26 27 27 39 36 34 31 27 24 20 18 16 14 13 12 10 10 9 8 7 6 6 6 5 5 4 3 2 2 1 1 2 2 2 3 3 4 5 6 7 8 9 9
27 28 27 42 41 37 31 29 25 21 19 17 15 13 12 11 10 9 8 7 6 6 6 5 4 3 2 2 1 1 1 2 2 3 3 3 5 6 7 8 9 10 10
28 30 31 37 43 42 36 30 26 22 20 18 15 14 13 12 11 9 8 8 7 6 6 5 4 3 2 1 1 1 1 2 2 3 4 4 5 6 7 7 8 9 10
27 30 30 32 45 41 38 32 28 24 21 18 16 15 13 12 11 10 9 8 7 6 5 5 4 3 2 0 0 0 1 3 3 4 4 5 5 6 6 9 10 11 13
24 30 31 32 47 39 37 35 32 28 23 20 18 15 14 13 12 11 10 9 7 6 5 4 3 3 2 1 2 1 1 1 1 3 4 4 6 8 9 10 11 13 15
26 30 31 31 38 38 38 35 32 28 24 20 18 16 14 13 12 11 10 9 7 6 5 4 3 3 3 2 3 5 4 2 3 2 2 1 4 5 8 12 15 17 20
27 31 31 35 40 41 40 36 32 28 24 22 19 17 16 14 13 11 10 8 7 6 5 4 3 3 2 2 3 4 2 2 2 0 4 2 7 10 12 16 15 16 17
30 30 30 35 44 43 40 35 32 29 26 23 20 18 16 15 13 11 9 8 6 5 5 3 3 3 3 3 3 4 4 2 2 1 4 7 8 11 13 13 15 15 16
30 32 33 37 45 41 36 35 30 26 24 22 21 19 17 16 13 11 9 8 6 5 4 3 3 4 4 3 3 5 5 5 4 2 3 7 11 12 14 19 18 17 14
31 31 37 39 42 46 40 34 29 26 25 25 22 20 18 16 13 11 9 8 6 5 5 4 4 4 5 4 5 6 6 5 5 6 6 10 14 15 19 17 16 16 19
Wind_Direction
185 181 175 173 172 172 170 167 163 160 156 152 151 150 148 144 143 141 140 145 133 117 94 61 5 353 25 26 27 24 48 61 73 83 73 56 56 60 53 49 53 36 28
180 180 177 173 177 175 173 170 167 164 161 160 160 160 158 152 153 153 160 164 180 194 152 276 338 330 357 2 355 347 351 6 29 58 50 32 32 38 30 28 33 34 16
177 176 177 178 185 180 177 174 172 169 168 168 166 167 166 161 175 188 200 210 221 247 224 226 222 243 303 307 305 309 309 324 341 3 35 41 359 357 5 4 12 18 14
174 174 177 178 189 185 181 178 175 171 169 170 169 172 185 207 223 218 228 234 230 222 223 230 238 257 269 265 267 280 289 283 289 319 42 50 25 335 353 1 356 5 15
178 178 182 179 190 188 185 181 177 174 179 181 183 198 220 236 245 248 250 247 248 245 241 250 258 267 272 275 279 282 278 276 282 358 37 56 72 334 349 345 347 342 339
182 181 189 181 191 193 187 184 186 188 188 194 208 218 236 250 255 253 250 245 243 246 249 255 262 268 271 275 277 274 272 264 262 106 88 351 95 313 316 321 331 336 335
185 182 186 185 195 192 189 191 193 195 198 206 217 230 242 252 257 254 249 244 243 246 250 257 263 268 273 281 288 288 280 231 125 124 118 104 108 322 337 340 339 338 337
189 185 186 190 196 192 195 200 197 201 205 212 223 240 249 253 250 246 243 243 243 247 250 254 259 268 281 288 311 40 90 113 95 103 114 119 261 301 313 326 329 338 352
193 192 193 196 195 197 201 209 204 203 210 219 230 241 245 244 245 244 243 243 244 243 240 238 235 225 197 132 104 101 99 108 97 106 103 87 284 306 318 324 17 50 17
201 198 198 196 198 200 205 213 205 207 214 226 234 237 235 237 240 244 241 236 229 225 218 210 195 184 165 126 117 117 113 103 84 75 48 315 321 338 36 77 91 42 50
210 204 201 200 202 205 206 211 203 209 218 228 232 229 225 226 233 236 232 226 214 206 188 178 172 165 167 162 138 131 115 96 74 67 39 70 65 103 107 101 74 51 94
216 212 210 211 212 206 209 209 206 212 218 225 226 220 218 219 218 223 217 194 184 183 181 168 163 166 159 159 174 150 128 102 94 95 107 104 102 125 138 114 34 339 288
228 221 214 212 211 205 220 206 210 213 217 219 218 216 216 216 213 209 201 190 181 171 165 165 162 173 176 181 195 208 209 165 119 134 156 146 135 172 208 242 329 311 301
240 226 217 210 207 210 222 205 213 214 214 214 213 212 213 214 207 196 193 190 190 185 181 175 178 184 193 197 181 185 200 169 179 178 192 193 213 212 227 271 295 302 315
259 243 220 211 206 209 219 200 211 214 211 212 210 210 211 210 201 195 192 188 186 185 186 184 187 181 182 199 189 213 213 203 204 197 209 212 227 246 264 279 288 288 281
258 251 238 208 206 206 218 199 209 209 208 207 208 207 208 204 196 192 190 187 185 181 181 177 182 181 189 201 221 225 230 218 173 172 184 211 230 245 264 280 288 292 296
255 257 242 207 206 209 206 197 206 206 203 203 204 204 202 199 193 188 187 189 188 186 185 181 182 183 190 189 201 155 184 184 172 167 195 217 249 262 274 281 288 293 296
250 247 239 227 210 207 198 201 197 199 201 200 200 199 195 194 190 189 190 188 185 185 180 182 183 186 192 194 178 166 220 223 210 219 240 249 261 276 286 290 294 297 300
241 241 243 224 214 201 195 192 192 194 196 196 195 194 190 188 188 187 185 181 176 176 179 182 184 185 192 209 265 272 261 237 234 247 255 263 273 283 294 301 303 306 310
231 232 243 228 209 193 189 186 187 189 192 191 190 190 187 186 185 183 177 174 173 172 173 182 174 176 163 177 256 202 254 240 238 237 254 274 286 293 303 309 311 313 313
222 225 235 228 202 186 181 183 185 185 187 188 187 187 185 185 182 177 172 171 169 164 169 171 170 159 138 116 130 127 92 154 245 243 262 274 295 300 305 312 314 314 312
228 229 230 232 210 198 189 186 187 180 182 185 185 184 182 181 178 174 170 166 165 163 164 159 167 171 126 112 155 153 143 108 2 290 280 331 334 338 326 317 315 313 310
222 226 226 225 207 189 192 184 184 178 181 181 182 182 180 178 176 173 169 166 166 163 159 160 163 159 116 102 92 143 127 146 341 9 323 350 328 322 322 320 323 320 317
216 224 225 218 202 200 191 187 185 181 179 181 182 180 178 175 173 171 169 168 164 163 153 159 173 136 107 94 90 89 98 103 106 177 319 318 334 328 329 331 325 323 317
210 216 215 204 199 207 191 191 180 177 179 176 177 177 176 173 171 170 170 167 162 157 152 163 146 118 97 92 92 83 70 62 53 36 309 317 325 330 330 333 329 325 325
213 212 208 200 193 190 191 181 178 176 174 174 175 175 174 170 171 168 166 159 151 150 133 142 123 99 93 92 82 74 66 53 11 8 330 321 318 326 327 325 324 322 326
Height
1515 1517 1520 1523 1526 1528 1530 1532 1534 1535 1536 1537 1539 1540 1540 1541 1542 1542 1543 1543 1543 1543 1543 1543 1543 1542 1541 1541 1540 1540 1540 1540 1539 1539 1539 1539 1539 1539 1538 1538 1537 1538 1536
1516 1518 1521 1524 1526 1528 1531 1532 1534 1535 1536 1538 1539 1540 1541 1541 1542 1542 1543 1543 1543 1543 1543 1543 1543 1542 1542 1541 1541 1540 1540 1540 1539 1539 1539 1540 1539 1539 1538 1538 1538 1537 1536
1516 1518 1521 1524 1526 1528 1530 1532 1534 1535 1537 1538 1539 1540 1541 1542 1542 1542 1543 1543 1543 1543 1543 1543 1543 1542 1542 1542 1541 1540 1540 1540 1540 1540 1541 1542 1541 1539 1539 1538 1538 1537 1536
1517 1518 1521 1524 1526 1528 1530 1532 1534 1535 1537 1538 1539 1540 1541 1541 1541 1542 1542 1542 1542 1542 1542 1542 1542 1542 1542 1541 1541 1541 1540 1540 1540 1541 1543 1543 1543 1540 1539 1539 1538 1537 1537
1518 1520 1522 1524 1526 1528 1530 1532 1534 1535 1536 1538 1539 1539 1540 1540 1541 1541 1541 1541 1541 1541 1541 1541 1541 1541 1540 1540 1539 1539 1539 1539 1540 1541 1542 1542 1543 1540 1539 1538 1537 1537 1536
1519 1521 1521 1523 1526 1528 1530 1532 1534 1535 1535 1536 1538 1538 1539 1539 1539 1539 1539 1539 1539 1539 1539 1539 1539 1539 1539 1539 1538 1538 1538 1538 1539 1541 1542 1541 1542 1539 1539 1538 1537 1536 1535
1517 1519 1520 1523 1525 1527 1529 1531 1533 1534 1535 1535 1536 1537 1538 1538 1538 1538 1538 1538 1538 1537 1537 1538 1538 1538 1538 1537 1537 1537 1537 1537 1539 1540 1542 1542 1541 1539 1539 1538 1537 1535 1534
1517 1519 1521 1522 1525 1526 1528 1530 1531 1532 1534 1534 1534 1535 1536 1536 1536 1536 1537 1536 1536 1536 1536 1536 1536 1537 1537 1537 1537 1537 1537 1537 1539 1540 1541 1542 1539 1539 1538 1537 1536 1535 1534
1516 1518 1520 1521 1523 1525 1527 1528 1530 1531 1532 1533 1533 1533 1534 1534 1535 1535 1535 1535 1535 1535 1535 1535 1536 1536 1536 1536 1537 1537 1537 1538 1540 1540 1541 1542 1538 1538 1537 1537 1536 1535 1534
1514 1516 1518 1519 1521 1522 1524 1526 1528 1530 1531 1532 1532 1532 1533 1533 1533 1534 1534 1534 1534 1534 1534 1535 1535 1535 1536 1536 1537 1537 1538 1539 1540 1540 1540 1538 1538 1537 1537 1536 1536 1535 1535
1511 1512 1514 1515 1516 1519 1522 1524 1527 1528 1529 1530 1531 1531 1532 1532 1532 1532 1532 1533 1533 1533 1534 1534 1535 1535 1536 1536 1537 1537 1538 1539 1539 1539 1539 1537 1537 1537 1537 1537 1537 1536 1535
1506 1508 1510 1511 1514 1516 1519 1522 1524 1526 1527 1528 1529 1530 1530 1530 1530 1531 1531 1532 1532 1533 1533 1534 1534 1535 1536 1537 1537 1537 1538 1538 1538 1539 1538 1538 1538 1538 1537 1537 1537 1537 1536
1502 1503 1503 1505 1508 1511 1516 1519 1521 1523 1525 1526 1527 1528 1529 1529 1529 1530 1530 1531 1532 1532 1533 1534 1535 1535 1536 1536 1536 1536 1536 1537 1537 1538 1538 1538 1538 1537 1537 1537 1537 1536 1535
1497 1496 1496 1495 1498 1505 1511 1514 1518 1520 1522 1523 1525 1526 1527 1527 1528 1528 1529 1530 1531 1532 1533 1534 1534 1535 1535 1535 1535 1536 1536 1536 1536 1536 1537 1537 1537 1537 1537 1536 1536 1536 1535
1489 1491 1491 1493 1490 1495 1504 1508 1513 1516 1519 1521 1522 1524 1525 1525 1526 1527 1528 1529 1530 1531 1532 1533 1534 1534 1534 1534 1535 1535 1535 1535 1535 1535 1535 1536 1536 1537 1537 1536 1535 1535 1534
1482 1485 1476 1488 1490 1487 1494 1503 1509 1512 1515 1518 1520 1521 1522 1523 1525 1526 1527 1528 1529 1530 1531 1532 1533 1533 1533 1534 1534 1534 1534 1534 1535 1535 1535 1535 1536 1536 1536 1535 1534 1533 1533
1478 1473 1475 1461 1478 1490 1487 1496 1504 1508 1512 1515 1517 1519 1520 1522 1523 1525 1526 1527 1528 1529 1530 1531 1532 1532 1532 1533 1533 1533 1534 1534 1535 1535 1535 1535 1535 1535 1535 1534 1533 1532 1531
1472 1472 1473 1473 1476 1485 1481 1491 1498 1504 1508 1511 1515 1517 1518 1520 1522 1523 1525 1526 1527 1528 1529 1530 1531 1532 1532 1532 1533 1533 1533 1534 1534 1535 1535 1535 1534 1534 1534 1533 1532 1531 1530
1464 1464 1467 1471 1473 1474 1477 1485 1494 1500 1505 1508 1512 1515 1516 1518 1520 1522 1523 1525 1526 1527 1528 1529 1530 1531 1532 1532 1532 1532 1533 1534 1534 1534 1534 1534 1533 1533 1533 1532 1531 1530 1529
1457 1457 1459 1466 1461 1468 1475 1479 1488 1495 1501 1505 1509 1512 1514 1516 1518 1520 1522 1524 1525 1526 1527 1528 1529 1530 1531 1531 1531 1531 1532 1533 1533 1533 1533 1533 1532 1532 1531 1531 1530 1529 1528
1450 1450 1453 1460 1465 1470 1468 1473 1482 1489 1496 1502 1506 1510 1512 1515 1517 1519 1520 1522 1524 1525 1527 1528 1528 1530 1530 1530 1531 1531 1530 1532 1532 1532 1532 1532 1531 1531 1530 1530 1529 1527 1526
1443 1445 1446 1449 1451 1459 1468 1471 1481 1486 1493 1499 1504 1508 1511 1513 1515 1517 1519 1521 1523 1525 1526 1527 1529 1530 1529 1529 1530 1530 1531 1533 1532 1531 1531 1531 1530 1530 1529 1528 1527 1525 1523
1437 1440 1442 1446 1450 1458 1466 1469 1481 1483 1490 1496 1502 1505 1509 1512 1514 1517 1518 1520 1522 1524 1525 1527 1528 1529 1528 1529 1529 1529 1529 1531 1531 1531 1530 1530 1530 1529 1528 1526 1524 1522 1520
1430 1435 1439 1442 1449 1454 1466 1470 1474 1478 1486 1493 1499 1503 1507 1510 1513 1516 1518 1520 1522 1524 1525 1527 1528 1527 1527 1529 1529 1528 1528 1529 1530 1532 1530 1529 1529 1528 1526 1524 1522 1520 1517
1426 1429 1434 1440 1447 1453 1461 1466 1471 1478 1486 1491 1497 1502 1506 1509 1513 1515 1518 1519 1521 1523 1524 1527 1528 1527 1527 1529 1530 1528 1528 1528 1529 1530 1530 1530 1527 1526 1524 1521 1520 1517 1514
1423 1427 1430 1436 1444 1454 1458 1464 1470 1477 1484 1488 1494 1500 1505 1508 1512 1514 1517 1519 1520 1523 1523 1527 1527 1526 1526 1528 1529 1528 1529 1529 1528 1528 1528 1527 1525 1522 1520 1518 1516 1513 1511